TimeCDT,TemperatureF,Dew PointF,Humidity,Sea Level PressureIn,VisibilityMPH,Wind Direction,Wind SpeedMPH,Gust SpeedMPH,PrecipitationIn,Events,Conditions,WindDirDegrees,DateUTC
12:08 AM,57.2,53.6,88,30.08,10.0,Calm,Calm,-,N/A,,Clear,0,2013-08-18 05:08:00
12:28 AM,55.4,53.6,94,30.09,10.0,Calm,Calm,-,N/A,,Clear,0,2013-08-18 05:28:00
12:48 AM,55.4,53.6,94,30.09,10.0,Calm,Calm,-,N/A,,Clear,0,2013-08-18 05:48:00
1:08 AM,53.6,51.8,94,30.09,10.0,Calm,Calm,-,N/A,,Clear,0,2013-08-18 06:08:00
1:29 AM,53.6,51.8,94,30.09,7.0,Calm,Calm,-,N/A,,Clear,0,2013-08-18 06:29:00
1:49 AM,53.6,53.6,100,30.09,7.0,Calm,Calm,-,N/A,,Clear,0,2013-08-18 06:49:00
2:10 AM,53.6,51.8,94,30.09,3.0,Calm,Calm,-,N/A,,Clear,0,2013-08-18 07:10:00
2:28 AM,53.6,51.8,94,30.09,4.0,Calm,Calm,-,N/A,,Clear,0,2013-08-18 07:28:00
2:48 AM,51.8,51.8,100,30.09,5.0,Calm,Calm,-,N/A,,Clear,0,2013-08-18 07:48:00
3:09 AM,51.8,51.8,100,30.09,1.8,Calm,Calm,-,N/A,,Mist,0,2013-08-18 08:09:00
3:30 AM,51.8,51.8,100,30.09,5.0,Calm,Calm,-,N/A,,Clear,0,2013-08-18 08:30:00
3:50 AM,51.8,50.0,94,30.09,1.2,Calm,Calm,-,N/A,,Mist,0,2013-08-18 08:50:00
4:13 AM,51.8,51.8,100,30.09,3.0,Calm,Calm,-,N/A,,Mist,0,2013-08-18 09:13:00
4:29 AM,51.8,50.0,94,30.09,0.5,Calm,Calm,-,N/A,Fog,Fog,0,2013-08-18 09:29:00
4:49 AM,51.8,50.0,94,30.09,3.0,Calm,Calm,-,N/A,,Mist,0,2013-08-18 09:49:00
5:08 AM,51.8,50.0,94,30.09,4.0,Calm,Calm,-,N/A,,Clear,0,2013-08-18 10:08:00
5:28 AM,50.0,48.2,94,30.09,4.0,Calm,Calm,-,N/A,,Clear,0,2013-08-18 10:28:00
5:48 AM,50.0,50.0,100,30.09,0.2,Calm,Calm,-,N/A,Fog,Fog,0,2013-08-18 10:48:00
6:09 AM,50.0,50.0,100,30.10,0.8,Calm,Calm,-,N/A,,Mist,0,2013-08-18 11:09:00
6:29 AM,50.0,50.0,100,30.11,0.2,Calm,Calm,-,N/A,Fog,Fog,0,2013-08-18 11:29:00
6:48 AM,50.0,50.0,100,30.11,1.5,Calm,Calm,-,N/A,,Mist,0,2013-08-18 11:48:00
7:08 AM,50.0,50.0,100,30.11,0.8,Calm,Calm,-,N/A,,Mist,0,2013-08-18 12:08:00
7:28 AM,51.8,51.8,100,30.12,3.0,Calm,Calm,-,N/A,,Clear,0,2013-08-18 12:28:00
7:50 AM,53.6,53.6,100,30.12,5.0,Calm,Calm,-,N/A,,Mostly Cloudy,0,2013-08-18 12:50:00
8:11 AM,55.4,55.4,100,30.12,10.0,SW,3.5,-,N/A,,Mostly Cloudy,230,2013-08-18 13:11:00
8:30 AM,59.0,57.2,94,30.12,10.0,SW,5.8,-,N/A,,Scattered Clouds,220,2013-08-18 13:30:00
8:50 AM,62.6,55.4,77,30.11,10.0,SSW,8.1,-,N/A,,Clear,210,2013-08-18 13:50:00
9:08 AM,64.4,55.4,73,30.10,10.0,SSW,6.9,-,N/A,,Clear,210,2013-08-18 14:08:00
9:28 AM,68.0,55.4,64,30.09,10.0,SW,10.4,-,N/A,,Clear,220,2013-08-18 14:28:00
9:48 AM,69.8,55.4,60,30.09,10.0,SSW,10.4,-,N/A,,Clear,210,2013-08-18 14:48:00
10:08 AM,71.6,55.4,57,30.09,10.0,SSW,11.5,20.7,N/A,,Clear,210,2013-08-18 15:08:00
10:28 AM,71.6,53.6,53,30.08,10.0,SSW,11.5,17.3,N/A,,Clear,210,2013-08-18 15:28:00
10:48 AM,73.4,55.4,53,30.08,10.0,SSW,8.1,-,N/A,,Clear,200,2013-08-18 15:48:00
11:08 AM,73.4,53.6,50,30.07,10.0,SSW,9.2,19.6,N/A,,Clear,200,2013-08-18 16:08:00
11:28 AM,77.0,53.6,44,30.06,10.0,SW,13.8,17.3,N/A,,Clear,220,2013-08-18 16:28:00
11:48 AM,77.0,53.6,44,30.06,10.0,SSW,13.8,23.0,N/A,,Clear,200,2013-08-18 16:48:00
12:08 PM,77.0,53.6,44,30.04,10.0,SSW,17.3,-,N/A,,Clear,200,2013-08-18 17:08:00
12:28 PM,78.8,51.8,39,30.04,10.0,SW,15.0,24.2,N/A,,Clear,220,2013-08-18 17:28:00
12:48 PM,78.8,51.8,39,30.03,10.0,SSW,12.7,19.6,N/A,,Clear,200,2013-08-18 17:48:00
1:08 PM,78.8,51.8,39,30.03,10.0,SSW,17.3,24.2,N/A,,Clear,200,2013-08-18 18:08:00
1:28 PM,78.8,51.8,39,30.04,10.0,SSW,12.7,23.0,N/A,,Clear,200,2013-08-18 18:28:00
1:48 PM,80.6,51.8,37,30.04,10.0,SSW,9.2,24.2,N/A,,Clear,200,2013-08-18 18:48:00
2:08 PM,80.6,50.0,34,30.04,10.0,SW,16.1,20.7,N/A,,Clear,220,2013-08-18 19:08:00
2:28 PM,80.6,50.0,34,30.03,10.0,SW,18.4,25.3,N/A,,Clear,230,2013-08-18 19:28:00
2:48 PM,80.6,50.0,34,30.03,10.0,SSW,16.1,26.5,N/A,,Clear,210,2013-08-18 19:48:00
3:08 PM,80.6,50.0,34,30.03,10.0,SSW,19.6,27.6,N/A,,Clear,210,2013-08-18 20:08:00
3:28 PM,80.6,50.0,34,30.02,10.0,SSW,17.3,26.5,N/A,,Clear,200,2013-08-18 20:28:00
3:48 PM,80.6,50.0,34,30.02,10.0,SW,15.0,21.9,N/A,,Clear,230,2013-08-18 20:48:00
4:08 PM,80.6,50.0,34,30.01,10.0,SW,15.0,20.7,N/A,,Clear,230,2013-08-18 21:08:00
4:28 PM,80.6,51.8,37,30.01,10.0,SW,12.7,23.0,N/A,,Clear,230,2013-08-18 21:28:00
4:48 PM,80.6,51.8,37,30.00,10.0,WSW,12.7,20.7,N/A,,Clear,240,2013-08-18 21:48:00
5:08 PM,78.8,51.8,39,30.00,10.0,SW,11.5,-,N/A,,Clear,220,2013-08-18 22:08:00
5:28 PM,80.6,51.8,37,30.00,10.0,SW,13.8,19.6,N/A,,Clear,230,2013-08-18 22:28:00
5:48 PM,78.8,51.8,39,29.99,10.0,SSW,15.0,23.0,N/A,,Clear,210,2013-08-18 22:48:00
6:07 PM,78.8,51.8,39,29.99,10.0,SSW,13.8,18.4,N/A,,Clear,210,2013-08-18 23:07:00
6:28 PM,78.8,51.8,39,29.99,10.0,SSW,13.8,19.6,N/A,,Clear,210,2013-08-18 23:28:00
6:48 PM,77.0,51.8,41,29.98,10.0,SSW,12.7,19.6,N/A,,Clear,200,2013-08-18 23:48:00
7:08 PM,77.0,51.8,41,29.98,10.0,SW,8.1,-,N/A,,Clear,220,2013-08-19 00:08:00
7:28 PM,75.2,51.8,44,29.96,10.0,SSW,11.5,20.7,N/A,,Clear,200,2013-08-19 00:28:00
7:48 PM,73.4,51.8,47,29.96,10.0,SSW,8.1,-,N/A,,Clear,200,2013-08-19 00:48:00
8:08 PM,71.6,51.8,50,29.96,10.0,SSW,8.1,-,N/A,,Clear,200,2013-08-19 01:08:00
8:27 PM,71.6,53.6,53,29.96,10.0,South,8.1,-,N/A,,Clear,190,2013-08-19 01:27:00
8:48 PM,69.8,53.6,56,29.97,10.0,SSW,6.9,-,N/A,,Clear,200,2013-08-19 01:48:00
9:08 PM,69.8,53.6,56,29.99,10.0,SW,5.8,-,N/A,,Clear,220,2013-08-19 02:08:00
9:28 PM,68.0,53.6,60,29.99,10.0,SW,4.6,-,N/A,,Mostly Cloudy,220,2013-08-19 02:28:00
9:48 PM,69.8,53.6,56,29.99,10.0,SW,4.6,-,N/A,,Overcast,220,2013-08-19 02:48:00
10:08 PM,68.0,55.4,64,29.99,10.0,SW,4.6,-,N/A,,Overcast,220,2013-08-19 03:08:00
10:28 PM,68.0,55.4,64,29.99,10.0,SSW,6.9,-,N/A,,Mostly Cloudy,210,2013-08-19 03:28:00
10:48 PM,69.8,55.4,60,29.97,10.0,SSW,6.9,-,N/A,,Scattered Clouds,210,2013-08-19 03:48:00
11:08 PM,69.8,55.4,60,29.98,10.0,SSW,8.1,-,N/A,,Scattered Clouds,210,2013-08-19 04:08:00
11:28 PM,68.0,55.4,64,29.98,10.0,SW,5.8,-,N/A,,Scattered Clouds,230,2013-08-19 04:28:00
11:48 PM,68.0,55.4,64,29.98,10.0,SW,5.8,-,N/A,,Clear,220,2013-08-19 04:48:00